Location: 22
(39.7117°N, 89.5929°W)
Time: 17:30:56
(UTC-05:00)

Gurwin Techsat 1B - Visible Passes

Search period start: 31 March 2023 00:00
Search period end: 10 April 2023 00:00
Orbit: 811 x 813 km, 98.9° (Epoch: 30 March)

Date Brightness Start Highest point End Pass type
(mag) Time Alt. Az. Time Alt. Az. Time Alt. Az.
31 Mar 11.2 02:34:33 10° ENE 02:35:52 13° ENE 02:35:52 13° ENE visible
31 Mar 8.8 04:12:29 10° N 04:17:05 60° NNW 04:17:05 60° NNW visible
01 Apr 9.0 03:49:26 10° NNE 03:53:54 61° NE 03:53:54 61° NE visible
01 Apr 10.3 05:31:16 10° NNW 05:33:59 14° WNW 05:35:05 13° WNW visible
02 Apr 9.7 03:26:35 10° NNE 03:30:43 41° ENE 03:30:43 41° ENE visible
02 Apr 9.9 05:07:13 10° NNW 05:11:16 22° WNW 05:11:55 22° WNW visible
03 Apr 10.4 03:03:59 10° NE 03:07:31 26° ENE 03:07:31 26° ENE visible
03 Apr 9.3 04:43:39 10° N 04:48:26 35° WNW 04:48:43 35° WNW visible
04 Apr 11.0 02:41:52 10° NE 02:44:20 17° E 02:44:20 17° E visible
04 Apr 8.7 04:20:20 10° N 04:25:31 57° WNW 04:25:31 57° WNW visible
05 Apr 8.5 03:57:13 10° NNE 04:02:20 82° NNE 04:02:20 82° NNE visible
05 Apr 10.5 05:39:39 10° NW 05:41:41 12° WNW 05:43:32 10° W visible
06 Apr 9.2 03:34:18 10° NNE 03:39:09 53° E 03:39:09 53° E visible
06 Apr 10.0 05:15:16 10° NNW 05:18:58 19° WNW 05:20:20 18° W visible
07 Apr 10.0 03:11:36 10° NNE 03:15:57 33° E 03:15:57 33° E visible
07 Apr 9.5 04:51:36 10° N 04:56:11 30° WNW 04:57:09 28° W visible
08 Apr 10.7 02:49:17 10° NE 02:52:45 20° E 02:52:45 20° E visible
08 Apr 8.8 04:28:12 10° N 04:33:19 48° WNW 04:33:57 46° W visible
09 Apr 11.2 02:27:56 10° ENE 02:29:33 12° E 02:29:33 12° E visible
09 Apr 8.4 04:05:01 10° N 04:10:21 79° WNW 04:10:45 73° WSW visible
09 Apr 10.6 05:48:33 10° NW 05:49:21 10° WNW 05:50:08 10° WNW visible
